Year,Month,Day,Hour,Minute,Value (Times are PST for barometer in hPa)
2008,07,13,00,00,1017.91
2008,07,13,00,01,1017.95
2008,07,13,00,02,1017.95
2008,07,13,00,03,1017.98
2008,07,13,00,04,1017.95
2008,07,13,00,05,1017.91
2008,07,13,00,06,1017.91
2008,07,13,00,07,1017.95
2008,07,13,00,08,1017.91
2008,07,13,00,09,1017.91
2008,07,13,00,10,1017.91
2008,07,13,00,11,1017.95
2008,07,13,00,12,1017.98
2008,07,13,00,13,1017.91
2008,07,13,00,14,1017.91
2008,07,13,00,15,1017.95
2008,07,13,00,16,1017.98
2008,07,13,00,17,1017.98
2008,07,13,00,18,1018.02
2008,07,13,00,19,1018.08
2008,07,13,00,20,1018.08
2008,07,13,00,21,1018.05
2008,07,13,00,22,1018.02
2008,07,13,00,23,1018.02
2008,07,13,00,24,1018.05
2008,07,13,00,25,1018.05
2008,07,13,00,26,1018.02
2008,07,13,00,27,1018.02
2008,07,13,00,28,1018.08
2008,07,13,00,29,1018.12
2008,07,13,00,30,1018.08
2008,07,13,00,31,1018.05
2008,07,13,00,32,1018.08
2008,07,13,00,33,1018.05
2008,07,13,00,34,1018.12
2008,07,13,00,35,1018.05
2008,07,13,00,36,1018.08
2008,07,13,00,37,1018.05
2008,07,13,00,38,1018.08
2008,07,13,00,39,1018.05
2008,07,13,00,40,1018.08
2008,07,13,00,41,1018.08
2008,07,13,00,42,1018.08
2008,07,13,00,43,1018.05
2008,07,13,00,44,1018.05
2008,07,13,00,45,1017.98
2008,07,13,00,46,1018.05
2008,07,13,00,47,1018.02
2008,07,13,00,48,1018.08
2008,07,13,00,49,1018.05
2008,07,13,00,50,1018.05
2008,07,13,00,51,1018.02
2008,07,13,00,52,1018.02
2008,07,13,00,53,1018.08
2008,07,13,00,54,1018.08
2008,07,13,00,55,1018.12
2008,07,13,00,56,1018.08
2008,07,13,00,57,1018.08
2008,07,13,00,58,1018.12
2008,07,13,00,59,1018.08
2008,07,13,01,00,1018.08
2008,07,13,01,01,1018.08
2008,07,13,01,02,1018.08
2008,07,13,01,03,1018.08
2008,07,13,01,04,1018.05
2008,07,13,01,05,1018.05
2008,07,13,01,06,1018.08
2008,07,13,01,07,1018.05
2008,07,13,01,08,1018.05
2008,07,13,01,09,1017.98
2008,07,13,01,10,1018.02
2008,07,13,01,11,1018.05
2008,07,13,01,12,1018.02
2008,07,13,01,13,1017.98
2008,07,13,01,14,1017.98
2008,07,13,01,15,1017.95
2008,07,13,01,16,1018.02
2008,07,13,01,17,1017.98
2008,07,13,01,18,1018.02
2008,07,13,01,19,1018.05
2008,07,13,01,20,1018.02
2008,07,13,01,21,1017.98
2008,07,13,01,22,1018.02
2008,07,13,01,23,1017.98
2008,07,13,01,24,1017.98
2008,07,13,01,25,1018.02
2008,07,13,01,26,1017.98
2008,07,13,01,27,1018.02
2008,07,13,01,28,1018.02
2008,07,13,01,29,1018.02
2008,07,13,01,30,1017.95
2008,07,13,01,31,1017.98
2008,07,13,01,32,1017.98
2008,07,13,01,33,1017.98
2008,07,13,01,34,1017.95
2008,07,13,01,35,1018.02
2008,07,13,01,36,1017.98
2008,07,13,01,37,1018.05
2008,07,13,01,38,1017.98
2008,07,13,01,39,1018.02
2008,07,13,01,40,1018.02
2008,07,13,01,41,1018.08
2008,07,13,01,42,1018.05
2008,07,13,01,43,1018.05
2008,07,13,01,44,1018.08
2008,07,13,01,45,1018.08
2008,07,13,01,46,1018.12
2008,07,13,01,47,1018.15
2008,07,13,01,48,1018.15
2008,07,13,01,49,1018.15
2008,07,13,01,50,1018.15
2008,07,13,01,51,1018.12
2008,07,13,01,52,1018.12
2008,07,13,01,53,1018.12
2008,07,13,01,54,1018.12
2008,07,13,01,55,1018.08
2008,07,13,01,56,1018.15
2008,07,13,01,57,1018.12
2008,07,13,01,58,1018.08
2008,07,13,01,59,1018.05
2008,07,13,02,00,1018.12
2008,07,13,02,01,1018.05
2008,07,13,02,02,1018.08
2008,07,13,02,03,1018.02
2008,07,13,02,04,1018.05
2008,07,13,02,05,1018.02
2008,07,13,02,06,1018.02
2008,07,13,02,07,1017.98
2008,07,13,02,08,1017.98
2008,07,13,02,09,1018.02
2008,07,13,02,10,1018.02
2008,07,13,02,11,1018.05
2008,07,13,02,12,1018.02
2008,07,13,02,13,1018.05
2008,07,13,02,14,1017.98
2008,07,13,02,15,1017.98
2008,07,13,02,16,1017.98
2008,07,13,02,17,1017.95
2008,07,13,02,18,1017.98
2008,07,13,02,19,1017.95
2008,07,13,02,20,1017.98
2008,07,13,02,21,1017.98
2008,07,13,02,22,1017.98
2008,07,13,02,23,1017.95
2008,07,13,02,24,1017.98
2008,07,13,02,25,1017.95
2008,07,13,02,26,1017.95
2008,07,13,02,27,1017.95
2008,07,13,02,28,1017.91
2008,07,13,02,29,1017.95
2008,07,13,02,30,1017.91
2008,07,13,02,31,1017.91
2008,07,13,02,32,1017.88
2008,07,13,02,33,1017.91
2008,07,13,02,34,1017.95
2008,07,13,02,35,1017.95
2008,07,13,02,36,1017.95
2008,07,13,02,37,1017.95
2008,07,13,02,38,1017.95
2008,07,13,02,39,1017.91
2008,07,13,02,40,1017.95
2008,07,13,02,41,1017.91
2008,07,13,02,42,1017.88
2008,07,13,02,43,1017.91
2008,07,13,02,44,1017.95
2008,07,13,02,45,1017.88
2008,07,13,02,46,1017.91
2008,07,13,02,47,1017.85
2008,07,13,02,48,1017.85
2008,07,13,02,49,1017.88
2008,07,13,02,50,1017.88
2008,07,13,02,51,1017.88
2008,07,13,02,52,1017.88
2008,07,13,02,53,1017.88
2008,07,13,02,54,1017.88
2008,07,13,02,55,1017.88
2008,07,13,02,56,1017.88
2008,07,13,02,57,1017.88
2008,07,13,02,58,1017.88
2008,07,13,02,59,1017.91
2008,07,13,03,00,1017.91
2008,07,13,03,01,1017.95
2008,07,13,03,02,1017.95
2008,07,13,03,03,1017.91
2008,07,13,03,04,1017.95
2008,07,13,03,05,1017.95
2008,07,13,03,06,1017.91
2008,07,13,03,07,1017.95
2008,07,13,03,08,1017.91
2008,07,13,03,09,1017.88
2008,07,13,03,10,1017.91
2008,07,13,03,11,1017.91
2008,07,13,03,12,1017.95
2008,07,13,03,13,1017.91
2008,07,13,03,14,1017.95
2008,07,13,03,15,1017.98
2008,07,13,03,16,1017.95
2008,07,13,03,17,1017.98
2008,07,13,03,18,1017.98
2008,07,13,03,19,1017.98
2008,07,13,03,20,1018.02
2008,07,13,03,21,1018.05
2008,07,13,03,22,1018.05
2008,07,13,03,23,1018.08
2008,07,13,03,24,1018.05
2008,07,13,03,25,1018.05
2008,07,13,03,26,1018.08
2008,07,13,03,27,1018.08
2008,07,13,03,28,1018.08
2008,07,13,03,29,1018.05
2008,07,13,03,30,1018.08
2008,07,13,03,31,1018.08
2008,07,13,03,32,1018.12
2008,07,13,03,33,1018.12
2008,07,13,03,34,1018.12
2008,07,13,03,35,1018.08
2008,07,13,03,36,1018.12
2008,07,13,03,37,1018.08
2008,07,13,03,38,1018.12
2008,07,13,03,39,1018.15
2008,07,13,03,40,1018.15
2008,07,13,03,41,1018.22
2008,07,13,03,42,1018.22
2008,07,13,03,43,1018.22
2008,07,13,03,44,1018.25
2008,07,13,03,45,1018.22
2008,07,13,03,46,1018.25
2008,07,13,03,47,1018.25
2008,07,13,03,48,1018.25
2008,07,13,03,49,1018.25
2008,07,13,03,50,1018.25
2008,07,13,03,51,1018.25
2008,07,13,03,52,1018.22
2008,07,13,03,53,1018.29
2008,07,13,03,54,1018.29
2008,07,13,03,55,1018.32
2008,07,13,03,56,1018.25
2008,07,13,03,57,1018.32
2008,07,13,03,58,1018.32
2008,07,13,03,59,1018.25
2008,07,13,04,00,1018.29
2008,07,13,04,01,1018.29
2008,07,13,04,02,1018.29
2008,07,13,04,03,1018.22
2008,07,13,04,04,1018.25
2008,07,13,04,11,1018.25
2008,07,13,04,12,1018.25
2008,07,13,04,13,1018.25
2008,07,13,04,14,1018.29
2008,07,13,04,15,1018.32
2008,07,13,04,16,1018.29
2008,07,13,04,17,1018.32
2008,07,13,04,18,1018.32
2008,07,13,04,19,1018.36
2008,07,13,04,20,1018.32
2008,07,13,04,21,1018.36
2008,07,13,04,22,1018.39
2008,07,13,04,23,1018.36
2008,07,13,04,24,1018.36
2008,07,13,04,32,1018.36
2008,07,13,04,33,1018.36
2008,07,13,04,34,1018.36
2008,07,13,04,35,1018.36
2008,07,13,04,36,1018.36
2008,07,13,04,37,1018.29
2008,07,13,04,38,1018.32
2008,07,13,04,39,1018.32
2008,07,13,04,40,1018.32
2008,07,13,04,41,1018.29
2008,07,13,04,42,1018.32
2008,07,13,04,43,1018.39
2008,07,13,04,44,1018.39
2008,07,13,04,45,1018.39
2008,07,13,04,46,1018.39
2008,07,13,04,47,1018.42
2008,07,13,04,48,1018.46
2008,07,13,04,49,1018.46
2008,07,13,04,50,1018.42
2008,07,13,04,51,1018.42
2008,07,13,04,52,1018.42
2008,07,13,04,53,1018.39
2008,07,13,04,54,1018.42
2008,07,13,04,55,1018.42
2008,07,13,04,56,1018.42
2008,07,13,04,57,1018.39
2008,07,13,04,58,1018.32
2008,07,13,04,59,1018.36
2008,07,13,05,00,1018.39
2008,07,13,05,01,1018.39
2008,07,13,05,02,1018.39
2008,07,13,05,03,1018.36
2008,07,13,05,04,1018.42
2008,07,13,05,05,1018.39
2008,07,13,05,06,1018.42
2008,07,13,05,07,1018.42
2008,07,13,05,08,1018.46
2008,07,13,05,09,1018.46
2008,07,13,05,10,1018.49
2008,07,13,05,11,1018.46
2008,07,13,05,12,1018.49
2008,07,13,05,13,1018.56
2008,07,13,05,14,1018.52
2008,07,13,05,15,1018.59
2008,07,13,05,16,1018.56
2008,07,13,05,17,1018.52
2008,07,13,05,18,1018.63
2008,07,13,05,19,1018.56
2008,07,13,05,20,1018.56
2008,07,13,05,21,1018.52
2008,07,13,05,22,1018.52
2008,07,13,05,23,1018.52
2008,07,13,05,24,1018.56
2008,07,13,05,25,1018.56
2008,07,13,05,26,1018.56
2008,07,13,05,27,1018.59
2008,07,13,05,28,1018.52
2008,07,13,05,29,1018.59
2008,07,13,05,30,1018.63
2008,07,13,05,31,1018.63
2008,07,13,05,32,1018.59
2008,07,13,05,33,1018.63
2008,07,13,05,34,1018.66
2008,07,13,05,35,1018.66
2008,07,13,05,36,1018.69
2008,07,13,05,37,1018.69
2008,07,13,05,38,1018.69
2008,07,13,05,39,1018.69
2008,07,13,05,40,1018.66
2008,07,13,05,41,1018.69
2008,07,13,05,42,1018.63
2008,07,13,05,43,1018.66
2008,07,13,05,44,1018.69
2008,07,13,05,45,1018.69
2008,07,13,05,46,1018.66
2008,07,13,05,47,1018.73
2008,07,13,05,48,1018.73
2008,07,13,05,49,1018.73
2008,07,13,05,50,1018.76
2008,07,13,05,51,1018.76
2008,07,13,05,52,1018.73
2008,07,13,05,53,1018.76
2008,07,13,05,54,1018.80
2008,07,13,05,55,1018.80
2008,07,13,05,56,1018.83
2008,07,13,05,57,1018.76
2008,07,13,05,58,1018.83
2008,07,13,05,59,1018.76
2008,07,13,06,00,1018.80
2008,07,13,06,01,1018.80
2008,07,13,06,02,1018.80
2008,07,13,06,03,1018.76
2008,07,13,06,04,1018.73
2008,07,13,06,05,1018.73
2008,07,13,06,06,1018.80
2008,07,13,06,07,1018.83
2008,07,13,06,08,1018.83
2008,07,13,06,09,1018.76
2008,07,13,06,10,1018.80
2008,07,13,06,11,1018.80
2008,07,13,06,12,1018.76
2008,07,13,06,13,1018.80
2008,07,13,06,14,1018.83
2008,07,13,06,15,1018.86
2008,07,13,06,16,1018.86
2008,07,13,06,17,1018.86
2008,07,13,06,18,1018.86
2008,07,13,06,19,1018.90
2008,07,13,06,20,1018.86
2008,07,13,06,21,1018.90
2008,07,13,06,22,1018.86
2008,07,13,06,23,1018.86
2008,07,13,06,24,1018.83
2008,07,13,06,25,1018.80
2008,07,13,06,26,1018.83
2008,07,13,06,27,1018.83
2008,07,13,06,28,1018.83
2008,07,13,06,29,1018.86
2008,07,13,06,30,1018.86
2008,07,13,06,31,1018.96
2008,07,13,06,32,1018.96
2008,07,13,06,33,1018.93
2008,07,13,06,34,1018.93
2008,07,13,06,35,1018.90
2008,07,13,06,36,1018.93
2008,07,13,06,37,1018.90
2008,07,13,06,38,1018.93
2008,07,13,06,39,1019.00
2008,07,13,06,40,1019.03
2008,07,13,06,41,1019.00
2008,07,13,06,42,1019.03
2008,07,13,06,43,1019.03
2008,07,13,06,44,1019.00
2008,07,13,06,45,1018.96
2008,07,13,06,46,1018.96
2008,07,13,06,47,1019.07
2008,07,13,06,48,1019.03
2008,07,13,06,49,1019.07
2008,07,13,06,50,1019.10
2008,07,13,06,51,1019.13
2008,07,13,06,52,1019.10
2008,07,13,06,53,1019.10
2008,07,13,06,54,1019.03
2008,07,13,06,55,1019.00
2008,07,13,06,56,1018.96
2008,07,13,06,57,1019.00
2008,07,13,06,58,1019.07
2008,07,13,06,59,1019.07
2008,07,13,07,00,1019.07
2008,07,13,07,01,1019.07
2008,07,13,07,02,1019.07
2008,07,13,07,03,1019.07
2008,07,13,07,04,1019.07
2008,07,13,07,05,1019.07
2008,07,13,07,06,1019.10
2008,07,13,07,07,1019.07
2008,07,13,07,08,1019.10
2008,07,13,07,09,1019.07
2008,07,13,07,10,1019.07
2008,07,13,07,11,1019.07
2008,07,13,07,12,1019.03
2008,07,13,07,13,1019.00
2008,07,13,07,14,1019.00
2008,07,13,07,15,1019.00
2008,07,13,07,16,1018.96
2008,07,13,07,17,1019.00
2008,07,13,07,18,1018.96
2008,07,13,07,19,1019.00
2008,07,13,07,20,1019.00
2008,07,13,07,21,1019.03
2008,07,13,07,22,1019.07
2008,07,13,07,23,1019.07
2008,07,13,07,24,1019.10
2008,07,13,07,25,1019.13
2008,07,13,07,26,1019.17
2008,07,13,07,27,1019.10
2008,07,13,07,28,1019.10
2008,07,13,07,29,1019.10
2008,07,13,07,30,1019.13
2008,07,13,07,31,1019.07
2008,07,13,07,32,1019.10
2008,07,13,07,33,1019.07
2008,07,13,07,34,1019.07
2008,07,13,07,35,1019.07
2008,07,13,07,36,1019.13
2008,07,13,07,37,1019.10
2008,07,13,07,38,1019.13
2008,07,13,07,39,1019.13
2008,07,13,07,40,1019.20
2008,07,13,07,41,1019.17
2008,07,13,07,42,1019.13
2008,07,13,07,43,1019.13
2008,07,13,07,44,1019.20
2008,07,13,07,45,1019.17
2008,07,13,07,46,1019.20
2008,07,13,07,47,1019.20
2008,07,13,07,48,1019.17
2008,07,13,07,49,1019.17
2008,07,13,07,50,1019.13
2008,07,13,07,51,1019.10
2008,07,13,07,52,1019.13
2008,07,13,07,53,1019.07
2008,07,13,07,54,1019.07
2008,07,13,07,55,1019.13
2008,07,13,07,56,1019.13
2008,07,13,07,57,1019.13
2008,07,13,07,58,1019.17
2008,07,13,07,59,1019.20
2008,07,13,08,00,1019.13
2008,07,13,08,01,1019.17
2008,07,13,08,02,1019.17
2008,07,13,08,03,1019.17
2008,07,13,08,04,1019.10
2008,07,13,08,05,1019.17
2008,07,13,08,06,1019.13
2008,07,13,08,07,1019.10
2008,07,13,08,08,1019.17
2008,07,13,08,09,1019.13
2008,07,13,08,10,1019.13
2008,07,13,08,11,1019.13
2008,07,13,08,12,1019.20
2008,07,13,08,13,1019.20
2008,07,13,08,14,1019.20
2008,07,13,08,15,1019.20
2008,07,13,08,16,1019.17
2008,07,13,08,17,1019.27
2008,07,13,08,18,1019.27
2008,07,13,08,19,1019.20
2008,07,13,08,20,1019.20
2008,07,13,08,21,1019.24
2008,07,13,08,22,1019.17
2008,07,13,08,23,1019.17
2008,07,13,08,24,1019.17
2008,07,13,08,25,1019.20
2008,07,13,08,26,1019.20
2008,07,13,08,27,1019.20
2008,07,13,08,28,1019.17
2008,07,13,08,29,1019.17
2008,07,13,08,30,1019.17
2008,07,13,08,31,1019.20
2008,07,13,08,32,1019.17
2008,07,13,08,33,1019.20
2008,07,13,08,34,1019.27
2008,07,13,08,35,1019.24
2008,07,13,08,36,1019.24
2008,07,13,08,37,1019.20
2008,07,13,08,38,1019.20
2008,07,13,08,39,1019.17
2008,07,13,08,40,1019.17
2008,07,13,08,41,1019.13
2008,07,13,08,42,1019.13
2008,07,13,08,43,1019.13
2008,07,13,08,44,1019.13
2008,07,13,08,45,1019.10
2008,07,13,08,46,1019.13
2008,07,13,08,47,1019.10
2008,07,13,08,48,1019.07
2008,07,13,08,49,1019.07
2008,07,13,08,50,1019.07
2008,07,13,08,51,1019.07
2008,07,13,08,52,1019.07
2008,07,13,08,53,1019.07
2008,07,13,08,54,1019.03
2008,07,13,08,55,1019.03
2008,07,13,08,56,1019.10
2008,07,13,08,57,1019.07
2008,07,13,08,58,1019.07
2008,07,13,08,59,1019.13
2008,07,13,09,00,1019.13
2008,07,13,09,01,1019.10
2008,07,13,09,02,1019.13
2008,07,13,09,03,1019.10
2008,07,13,09,04,1019.13
2008,07,13,09,05,1019.07
2008,07,13,09,06,1019.07
2008,07,13,09,07,1019.07
2008,07,13,09,08,1019.07
2008,07,13,09,09,1019.07
2008,07,13,09,10,1019.07
2008,07,13,09,11,1019.07
2008,07,13,09,12,1019.10
2008,07,13,09,13,1019.03
2008,07,13,09,14,1019.07
2008,07,13,09,15,1019.07
2008,07,13,09,16,1019.00
2008,07,13,09,17,1019.07
2008,07,13,09,18,1019.03
2008,07,13,09,19,1019.03
2008,07,13,09,20,1019.03
2008,07,13,09,21,1019.03
2008,07,13,09,22,1019.03
2008,07,13,09,23,1019.03
2008,07,13,09,24,1019.03
2008,07,13,09,25,1019.00
2008,07,13,09,26,1019.00
2008,07,13,09,27,1019.00
2008,07,13,09,28,1018.96
2008,07,13,09,29,1019.00
2008,07,13,09,30,1019.00
2008,07,13,09,31,1019.00
2008,07,13,09,32,1018.96
2008,07,13,09,33,1019.00
2008,07,13,09,34,1019.00
2008,07,13,09,35,1018.96
2008,07,13,09,36,1018.96
2008,07,13,09,37,1018.96
2008,07,13,09,38,1018.90
2008,07,13,09,39,1018.96
2008,07,13,09,40,1018.96
2008,07,13,09,41,1019.00
2008,07,13,09,42,1019.00
2008,07,13,09,43,1018.96
2008,07,13,09,44,1018.93
2008,07,13,09,45,1018.96
2008,07,13,09,46,1018.93
2008,07,13,09,47,1018.96
2008,07,13,09,48,1018.96
2008,07,13,09,49,1018.96
2008,07,13,09,50,1018.93
2008,07,13,09,51,1018.93
2008,07,13,09,52,1018.93
2008,07,13,09,53,1018.96
2008,07,13,09,54,1018.96
2008,07,13,09,55,1018.96
2008,07,13,09,56,1018.96
2008,07,13,09,57,1018.96
2008,07,13,09,58,1018.93
2008,07,13,09,59,1018.93
2008,07,13,10,00,1018.96
2008,07,13,10,01,1018.90
2008,07,13,10,02,1018.90
2008,07,13,10,03,1018.86
2008,07,13,10,04,1018.86
2008,07,13,10,05,1018.86
2008,07,13,10,06,1018.83
2008,07,13,10,07,1018.86
2008,07,13,10,08,1018.83
2008,07,13,10,09,1018.86
2008,07,13,10,10,1018.90
2008,07,13,10,11,1018.90
2008,07,13,10,12,1018.90
2008,07,13,10,13,1018.86
2008,07,13,10,14,1018.90
2008,07,13,10,15,1018.86
2008,07,13,10,16,1018.86
2008,07,13,10,17,1018.83
2008,07,13,10,18,1018.86
2008,07,13,10,19,1018.90
2008,07,13,10,20,1018.86
2008,07,13,10,21,1018.86
2008,07,13,10,22,1018.93
2008,07,13,10,23,1018.90
2008,07,13,10,24,1018.93
2008,07,13,10,25,1018.86
2008,07,13,10,26,1018.86
2008,07,13,10,27,1018.86
2008,07,13,10,28,1018.86
2008,07,13,10,29,1018.80
2008,07,13,10,30,1018.86
2008,07,13,10,31,1018.86
2008,07,13,10,32,1018.83
2008,07,13,10,33,1018.80
2008,07,13,10,34,1018.80
2008,07,13,10,35,1018.80
2008,07,13,10,36,1018.80
2008,07,13,10,37,1018.76
2008,07,13,10,38,1018.80
2008,07,13,10,39,1018.80
2008,07,13,10,40,1018.76
2008,07,13,10,41,1018.76
2008,07,13,10,42,1018.76
2008,07,13,10,43,1018.76
2008,07,13,10,44,1018.80
2008,07,13,10,45,1018.76
2008,07,13,10,46,1018.73
2008,07,13,10,47,1018.76
2008,07,13,10,48,1018.76
2008,07,13,10,49,1018.76
2008,07,13,10,50,1018.73
2008,07,13,10,51,1018.73
2008,07,13,10,52,1018.76
2008,07,13,10,53,1018.73
2008,07,13,10,54,1018.76
2008,07,13,10,55,1018.73
2008,07,13,10,56,1018.73
2008,07,13,10,57,1018.73
2008,07,13,10,58,1018.73
2008,07,13,10,59,1018.69
2008,07,13,11,00,1018.69
2008,07,13,11,01,1018.69
2008,07,13,11,02,1018.69
2008,07,13,11,03,1018.69
2008,07,13,11,04,1018.66
2008,07,13,11,05,1018.69
2008,07,13,11,06,1018.66
2008,07,13,11,07,1018.69
2008,07,13,11,08,1018.66
2008,07,13,11,09,1018.66
2008,07,13,11,10,1018.66
2008,07,13,11,11,1018.63
2008,07,13,11,12,1018.66
2008,07,13,11,13,1018.66
2008,07,13,11,14,1018.66
2008,07,13,11,15,1018.63
2008,07,13,11,16,1018.66
2008,07,13,11,17,1018.59
2008,07,13,11,18,1018.59
2008,07,13,11,19,1018.59
2008,07,13,11,20,1018.63
2008,07,13,11,21,1018.59
2008,07,13,11,22,1018.56
2008,07,13,11,23,1018.52
2008,07,13,11,24,1018.52
2008,07,13,11,25,1018.56
2008,07,13,11,26,1018.52
2008,07,13,11,27,1018.56
2008,07,13,11,28,1018.49
2008,07,13,11,29,1018.56
2008,07,13,11,30,1018.46
2008,07,13,11,31,1018.52
2008,07,13,11,32,1018.49
2008,07,13,11,33,1018.49
2008,07,13,11,34,1018.56
2008,07,13,11,35,1018.52
2008,07,13,11,36,1018.52
2008,07,13,11,37,1018.49
2008,07,13,11,38,1018.49
2008,07,13,11,39,1018.49
2008,07,13,11,40,1018.52
2008,07,13,11,41,1018.46
2008,07,13,11,42,1018.46
2008,07,13,11,43,1018.49
2008,07,13,11,44,1018.46
2008,07,13,11,45,1018.46
2008,07,13,11,46,1018.49
2008,07,13,11,47,1018.49
2008,07,13,11,48,1018.49
2008,07,13,11,49,1018.46
2008,07,13,11,50,1018.49
2008,07,13,11,51,1018.49
2008,07,13,11,52,1018.49
2008,07,13,11,53,1018.49
2008,07,13,11,54,1018.56
2008,07,13,11,55,1018.49
2008,07,13,11,56,1018.52
2008,07,13,11,57,1018.49
2008,07,13,11,58,1018.46
2008,07,13,11,59,1018.46
2008,07,13,12,00,1018.46
2008,07,13,12,01,1018.46
2008,07,13,12,02,1018.39
2008,07,13,12,03,1018.39
2008,07,13,12,04,1018.39
2008,07,13,12,05,1018.39
2008,07,13,12,06,1018.36
2008,07,13,12,07,1018.36
2008,07,13,12,08,1018.36
2008,07,13,12,09,1018.36
2008,07,13,12,10,1018.39
2008,07,13,12,11,1018.39
2008,07,13,12,12,1018.39
2008,07,13,12,13,1018.42
2008,07,13,12,14,1018.39
2008,07,13,12,15,1018.42
2008,07,13,12,16,1018.39
2008,07,13,12,17,1018.36
2008,07,13,12,18,1018.32
2008,07,13,12,19,1018.32
2008,07,13,12,20,1018.32
2008,07,13,12,21,1018.32
2008,07,13,12,22,1018.36
2008,07,13,12,23,1018.36
2008,07,13,12,24,1018.32
2008,07,13,12,25,1018.29
2008,07,13,12,26,1018.29
2008,07,13,12,27,1018.32
2008,07,13,12,28,1018.36
2008,07,13,12,29,1018.32
2008,07,13,12,30,1018.32
2008,07,13,12,31,1018.29
2008,07,13,12,32,1018.29
2008,07,13,12,33,1018.29
2008,07,13,12,34,1018.29
2008,07,13,12,35,1018.29
2008,07,13,12,36,1018.25
2008,07,13,12,37,1018.29
2008,07,13,12,38,1018.25
2008,07,13,12,39,1018.22
2008,07,13,12,40,1018.19
2008,07,13,12,41,1018.22
2008,07,13,12,42,1018.25
2008,07,13,12,43,1018.19
2008,07,13,12,44,1018.19
2008,07,13,12,45,1018.22
2008,07,13,12,46,1018.19
2008,07,13,12,47,1018.15
2008,07,13,12,48,1018.15
2008,07,13,12,49,1018.15
2008,07,13,12,50,1018.12
2008,07,13,12,51,1018.15
2008,07,13,12,52,1018.15
2008,07,13,12,53,1018.15
2008,07,13,12,54,1018.15
2008,07,13,12,55,1018.12
2008,07,13,12,56,1018.12
2008,07,13,12,57,1018.12
2008,07,13,12,58,1018.12
2008,07,13,12,59,1018.15
2008,07,13,13,00,1018.08
2008,07,13,13,01,1018.12
2008,07,13,13,02,1018.15
2008,07,13,13,03,1018.05
2008,07,13,13,04,1018.08
2008,07,13,13,05,1018.05
2008,07,13,13,06,1018.05
2008,07,13,13,07,1017.98
2008,07,13,13,08,1017.98
2008,07,13,13,09,1017.91
2008,07,13,13,10,1017.95
2008,07,13,13,11,1017.88
2008,07,13,13,12,1017.88
2008,07,13,13,13,1017.88
2008,07,13,13,14,1017.88
2008,07,13,13,15,1017.88
2008,07,13,13,16,1017.88
2008,07,13,13,17,1017.88
2008,07,13,13,18,1017.85
2008,07,13,13,19,1017.85
2008,07,13,13,20,1017.85
2008,07,13,13,21,1017.78
2008,07,13,13,22,1017.81
2008,07,13,13,23,1017.75
2008,07,13,13,24,1017.71
2008,07,13,13,25,1017.71
2008,07,13,13,26,1017.68
2008,07,13,13,27,1017.68
2008,07,13,13,28,1017.68
2008,07,13,13,29,1017.68
2008,07,13,13,30,1017.61
2008,07,13,13,31,1017.61
2008,07,13,13,32,1017.68
2008,07,13,13,33,1017.61
2008,07,13,13,34,1017.61
2008,07,13,13,35,1017.61
2008,07,13,13,36,1017.61
2008,07,13,13,37,1017.61
2008,07,13,13,38,1017.58
2008,07,13,13,39,1017.58
2008,07,13,13,40,1017.54
2008,07,13,13,41,1017.51
2008,07,13,13,42,1017.54
2008,07,13,13,43,1017.47
2008,07,13,13,44,1017.47
2008,07,13,13,45,1017.47
2008,07,13,13,46,1017.47
2008,07,13,13,47,1017.44
2008,07,13,13,48,1017.44
2008,07,13,13,49,1017.44
2008,07,13,13,50,1017.44
2008,07,13,13,51,1017.44
2008,07,13,13,52,1017.44
2008,07,13,13,53,1017.47
2008,07,13,13,54,1017.47
2008,07,13,13,55,1017.47
2008,07,13,13,56,1017.44
2008,07,13,13,57,1017.47
2008,07,13,13,58,1017.47
2008,07,13,13,59,1017.47
2008,07,13,14,00,1017.44
2008,07,13,14,01,1017.51
2008,07,13,14,02,1017.41
2008,07,13,14,03,1017.47
2008,07,13,14,04,1017.47
2008,07,13,14,05,1017.47
2008,07,13,14,06,1017.44
2008,07,13,14,07,1017.44
2008,07,13,14,08,1017.47
2008,07,13,14,09,1017.41
2008,07,13,14,10,1017.44
2008,07,13,14,11,1017.41
2008,07,13,14,12,1017.41
2008,07,13,14,13,1017.44
2008,07,13,14,14,1017.44
2008,07,13,14,15,1017.44
2008,07,13,14,16,1017.44
2008,07,13,14,17,1017.41
2008,07,13,14,18,1017.41
2008,07,13,14,19,1017.44
2008,07,13,14,20,1017.37
2008,07,13,14,21,1017.34
2008,07,13,14,22,1017.31
2008,07,13,14,23,1017.31
2008,07,13,14,24,1017.27
2008,07,13,14,25,1017.27
2008,07,13,14,26,1017.27
2008,07,13,14,27,1017.27
2008,07,13,14,28,1017.27
2008,07,13,14,29,1017.27
2008,07,13,14,30,1017.27
2008,07,13,14,31,1017.20
2008,07,13,14,32,1017.20
2008,07,13,14,33,1017.17
2008,07,13,14,34,1017.17
2008,07,13,14,35,1017.17
2008,07,13,14,36,1017.17
2008,07,13,14,37,1017.14
2008,07,13,14,38,1017.17
2008,07,13,14,39,1017.17
2008,07,13,14,40,1017.10
2008,07,13,14,41,1017.10
2008,07,13,14,42,1017.10
2008,07,13,14,43,1017.07
2008,07,13,14,44,1017.07
2008,07,13,14,45,1017.03
2008,07,13,14,46,1017.03
2008,07,13,14,47,1017.00
2008,07,13,14,48,1017.00
2008,07,13,14,49,1017.00
2008,07,13,14,50,1017.00
2008,07,13,14,51,1017.00
2008,07,13,14,52,1016.97
2008,07,13,14,53,1016.97
2008,07,13,14,54,1016.97
2008,07,13,14,55,1017.00
2008,07,13,14,56,1016.97
2008,07,13,14,57,1017.00
2008,07,13,14,58,1016.97
2008,07,13,14,59,1016.93
2008,07,13,15,00,1017.03
2008,07,13,15,01,1016.97
2008,07,13,15,02,1016.97
2008,07,13,15,03,1016.97
2008,07,13,15,04,1016.97
2008,07,13,15,05,1016.97
2008,07,13,15,06,1016.93
2008,07,13,15,07,1016.90
2008,07,13,15,08,1016.90
2008,07,13,15,09,1016.87
2008,07,13,15,10,1016.83
2008,07,13,15,11,1016.87
2008,07,13,15,12,1016.80
2008,07,13,15,13,1016.80
2008,07,13,15,14,1016.80
2008,07,13,15,15,1016.76
2008,07,13,15,16,1016.76
2008,07,13,15,17,1016.73
2008,07,13,15,18,1016.76
2008,07,13,15,19,1016.70
2008,07,13,15,20,1016.66
2008,07,13,15,21,1016.70
2008,07,13,15,22,1016.66
2008,07,13,15,23,1016.63
2008,07,13,15,24,1016.63
2008,07,13,15,25,1016.63
2008,07,13,15,26,1016.59
2008,07,13,15,27,1016.56
2008,07,13,15,28,1016.59
2008,07,13,15,29,1016.56
2008,07,13,15,30,1016.56
2008,07,13,15,31,1016.50
2008,07,13,15,32,1016.56
2008,07,13,15,33,1016.53
2008,07,13,15,34,1016.49
2008,07,13,15,35,1016.53
2008,07,13,15,36,1016.49
2008,07,13,15,37,1016.53
2008,07,13,15,38,1016.46
2008,07,13,15,39,1016.49
2008,07,13,15,40,1016.49
2008,07,13,15,41,1016.46
2008,07,13,15,42,1016.49
2008,07,13,15,43,1016.46
2008,07,13,15,44,1016.42
2008,07,13,15,45,1016.46
2008,07,13,15,46,1016.39
2008,07,13,15,47,1016.42
2008,07,13,15,48,1016.42
2008,07,13,15,49,1016.42
2008,07,13,15,50,1016.46
2008,07,13,15,51,1016.42
2008,07,13,15,52,1016.42
2008,07,13,15,53,1016.42
2008,07,13,15,54,1016.39
2008,07,13,15,55,1016.39
2008,07,13,15,56,1016.39
2008,07,13,15,57,1016.36
2008,07,13,15,58,1016.36
2008,07,13,15,59,1016.29
2008,07,13,16,00,1016.32
2008,07,13,16,01,1016.29
2008,07,13,16,02,1016.29
2008,07,13,16,03,1016.26
2008,07,13,16,04,1016.29
2008,07,13,16,05,1016.26
2008,07,13,16,06,1016.26
2008,07,13,16,07,1016.22
2008,07,13,16,08,1016.19
2008,07,13,16,09,1016.22